Location: ??????
(55.2000°N, 38.3000°E)
Time: 05:26:59
(UTC+00:00)

SKYMED 2 - Visible Passes

Search period start: 09 February 2026 00:00
Search period end: 19 February 2026 00:00
Orbit: 621 x 624 km, 97.9° (Epoch: 8 February)

Date Brightness Start Highest point End Pass type
(mag) Time Alt. Az. Time Alt. Az. Time Alt. Az.
9 Feb 6.2 00:51:10 10° E 00:54:06 18° NE 00:57:03 10° NNE visible
9 Feb 3.4 02:25:24 10° SSE 02:29:45 85° WSW 02:34:08 10° NNW visible
9 Feb 5.3 04:04:24 10° WSW 04:06:37 14° W 04:08:49 10° NW visible
9 Feb 3.5 15:41:40 10° NNE 15:46:02 72° ESE 15:50:22 10° S visible
9 Feb 6.1 17:18:33 10° N 17:21:47 21° WNW 17:24:59 10° WSW visible
10 Feb 5.8 01:08:29 10° ESE 01:11:57 24° ENE 01:15:25 10° N visible
10 Feb 3.5 02:43:31 10° S 02:47:48 60° WSW 02:52:08 10° NNW visible
10 Feb 3.7 15:59:41 10° NNE 16:04:05 81° WNW 16:08:25 10° SSW visible
10 Feb 6.5 17:37:00 10° NNW 17:39:35 16° NW 17:42:11 10° W visible
11 Feb 5.3 01:25:59 10° SE 01:29:49 32° ENE 01:33:41 10° N visible
11 Feb 3.9 03:01:47 10° S 03:05:55 41° W 03:10:04 10° NNW visible
11 Feb 4.2 16:17:47 10° N 16:22:04 57° WNW 16:26:19 10° SSW visible
11 Feb 6.7 17:55:44 10° NNW 17:57:22 12° NW 17:59:01 10° WNW visible
12 Feb 4.7 01:43:38 10° SE 01:47:45 43° ENE 01:51:53 10° N visible
12 Feb 4.3 03:20:15 10° SSW 03:24:03 29° W 03:27:54 10° NNW visible
12 Feb 4.4 14:59:50 10° NNE 15:03:44 31° E 15:07:38 10° SSE visible
12 Feb 4.9 16:35:56 10° N 16:40:01 41° WNW 16:44:05 10° SW visible
13 Feb 6.7 00:28:29 10° ENE 00:30:21 13° NE 00:32:13 10° NNE visible
13 Feb 4.0 02:01:25 10° SSE 02:05:42 61° ENE 02:10:01 10° N visible
13 Feb 4.8 03:38:55 10° SW 03:42:15 21° W 03:45:36 10° NW visible
13 Feb 3.9 15:17:41 10° NNE 15:21:53 44° E 15:26:03 10° S visible
13 Feb 5.5 16:54:08 10° N 16:57:56 30° WNW 17:01:42 10° WSW visible
14 Feb 6.4 00:45:25 10° E 00:48:08 17° NE 00:50:52 10° NNE visible
14 Feb 3.5 02:19:21 10° SSE 02:23:42 86° ENE 02:28:05 10° NNW visible
14 Feb 5.1 03:57:55 10° WSW 04:00:30 15° W 04:03:04 10° NW visible
14 Feb 3.6 15:35:38 10° NNE 15:39:58 64° ESE 15:44:17 10° S visible
14 Feb 6.0 17:12:24 10° N 17:15:48 23° WNW 17:19:11 10° WSW visible
15 Feb 6.0 01:02:39 10° ESE 01:05:57 22° ENE 01:09:16 10° N visible
15 Feb 3.4 02:37:25 10° S 02:41:45 67° WSW 02:46:06 10° NNW visible
15 Feb 3.6 15:53:38 10° NNE 15:58:02 90° SW 16:02:23 10° SSW visible
15 Feb 6.4 17:30:47 10° NNW 17:33:37 17° NW 17:36:27 10° W visible
16 Feb 5.5 01:20:05 10° ESE 01:23:49 29° ENE 01:27:34 10° N visible
16 Feb 3.8 02:55:38 10° S 02:59:50 47° W 03:04:03 10° NNW visible
16 Feb 4.0 16:11:42 10° N 16:16:01 64° WNW 16:20:19 10° SSW visible
16 Feb 6.7 17:49:23 10° NNW 17:51:24 13° NW 17:53:25 10° WNW visible
17 Feb 4.9 01:37:41 10° SE 01:41:43 39° ENE 01:45:46 10° N visible
17 Feb 4.2 03:14:01 10° SSW 03:17:57 33° W 03:21:55 10° NNW visible
17 Feb 4.7 16:29:49 10° N 16:33:59 45° WNW 16:38:08 10° SW visible
18 Feb 6.8 00:22:56 10° ENE 00:24:22 11° NE 00:25:49 10° NNE visible
18 Feb 4.3 01:55:25 10° SE 01:59:39 54° ENE 02:03:55 10° N visible
18 Feb 4.6 03:32:36 10° SW 03:36:07 24° W 03:39:40 10° NW visible
18 Feb 4.1 15:11:40 10° NNE 15:15:47 39° E 15:19:52 10° SSE visible
18 Feb 5.3 16:47:59 10° N 16:51:54 33° WNW 16:55:48 10° SW visible
